sat.trackr.live / text

‹ back to catalog

STARLINK-31424

NORAD 59247 · 2024-049S

PAYLOAD ACTIVE UNKNOWN

§ Identity

Operator
Country
US
Launch date
2024-03-16
Launch site
AFETR
Launch vehicle
Mass (kg)
RCS (m²)

Purposes: comms

External: N2YO · Heavens-Above · Gunter

§ Orbital elements

Epoch: 2026-09-20T07:52:56.015904Z

Period
94.27 min
Inclination
43.0009°
Eccentricity
0.0000369
Mean motion
15.27594780 rev/d
Perigee alt
482.8 km
Apogee alt
483.3 km
Semi-major
6,861.1 km
B*
-1.3720e-4
RAAN
120.8485°
Arg perigee
46.1780°
Mean anomaly
313.9102°
Rev number
14,220

§ Raw data

STARLINK-314241 59247U 24049S   26263.32842611 -.00004037  00000+0 -13720-3 0  99932 59247  43.0009 120.8485 0000369  46.1780 313.9102 15.27594780142203

JSON: /api/v1/satellites/59247 · /tle

For live sub-satellite position, see the globe view (requires WebGL).

§ Visibility from observer

Set your observer location to see the next 7 days of passes ≥ 10°. The values pass through the URL so the page stays shareable.

No JS? Fill the form by hand. The geolocation button needs JavaScript.